timestamp,wind_dir_avg,wind_spd_max_dir,wind_spd_avg,wind_spd_gust,battery_voltage,lat,long
2017-12-11 00:00:00+00:00,263.0,267.0,14.77,17.44,,47.59359,-54.27349
2017-12-11 00:10:00+00:00,258.0,258.0,15.16,17.76,,47.59359,-54.27349
2017-12-11 00:20:00+00:00,259.0,257.0,13.85,16.84,,47.59359,-54.27349
2017-12-11 00:30:00+00:00,259.0,261.0,13.18,15.64,,47.59359,-54.27349
2017-12-11 00:40:00+00:00,261.0,260.0,14.85,16.59,,47.59359,-54.27349
2017-12-11 00:50:00+00:00,259.0,263.0,12.53,15.64,,47.59359,-54.27349
2017-12-11 01:00:00+00:00,258.0,258.0,13.35,16.35,,47.59359,-54.27349
2017-12-11 01:10:00+00:00,259.0,259.0,12.5,15.03,,47.59359,-54.27349
2017-12-11 01:20:00+00:00,263.0,264.0,12.16,13.86,,47.59359,-54.27349
2017-12-11 01:30:00+00:00,266.0,265.0,13.73,17.64,,47.59359,-54.27349
2017-12-11 01:40:00+00:00,267.0,266.0,14.57,16.85,,47.59359,-54.27349
2017-12-11 01:50:00+00:00,268.0,268.0,13.54,16.38,,47.59359,-54.27349
2017-12-11 02:00:00+00:00,270.0,268.0,11.96,13.75,,47.59359,-54.27349
2017-12-11 02:10:00+00:00,269.0,272.0,12.04,13.99,,47.59359,-54.27349
2017-12-11 02:20:00+00:00,269.0,272.0,13.84,15.41,,47.59359,-54.27349
2017-12-11 02:30:00+00:00,268.0,265.0,13.51,15.59,,47.59359,-54.27349
2017-12-11 02:40:00+00:00,272.0,271.0,15.02,19.01,,47.59359,-54.27349
2017-12-11 02:50:00+00:00,280.0,283.0,12.43,13.95,,47.59359,-54.27349
2017-12-11 03:00:00+00:00,274.0,278.0,11.85,13.42,,47.59359,-54.27349
2017-12-11 03:10:00+00:00,274.0,274.0,11.15,12.84,,47.59359,-54.27349
2017-12-11 03:20:00+00:00,272.0,272.0,11.34,13.4,,47.59359,-54.27349
2017-12-11 03:30:00+00:00,268.0,274.0,10.73,12.58,,47.59359,-54.27349
2017-12-11 03:40:00+00:00,277.0,274.0,11.45,12.59,,47.59359,-54.27349
2017-12-11 03:50:00+00:00,271.0,271.0,11.43,12.72,,47.59359,-54.27349
2017-12-11 04:00:00+00:00,275.0,284.0,10.47,12.11,,47.59359,-54.27349
2017-12-11 04:10:00+00:00,266.0,262.0,10.51,11.57,,47.59359,-54.27349
2017-12-11 04:20:00+00:00,268.0,267.0,11.56,13.45,,47.59359,-54.27349
2017-12-11 04:30:00+00:00,270.0,275.0,10.55,12.04,,47.59359,-54.27349
2017-12-11 04:40:00+00:00,274.0,277.0,10.32,11.89,,47.59359,-54.27349
2017-12-11 04:50:00+00:00,270.0,266.0,9.61,11.07,,47.59359,-54.27349
2017-12-11 05:00:00+00:00,262.0,261.0,8.43,9.75,,47.59359,-54.27349
2017-12-11 05:10:00+00:00,279.0,281.0,9.45,11.22,,47.59359,-54.27349
2017-12-11 05:20:00+00:00,277.0,275.0,9.5,11.57,,47.59359,-54.27349
2017-12-11 05:30:00+00:00,268.0,273.0,9.47,10.98,,47.59359,-54.27349
2017-12-11 05:40:00+00:00,259.0,264.0,8.58,9.98,,47.59359,-54.27349
2017-12-11 05:50:00+00:00,266.0,263.0,8.42,9.66,,47.59359,-54.27349
2017-12-11 06:00:00+00:00,259.0,260.0,10.08,11.75,,47.59359,-54.27349
2017-12-11 06:10:00+00:00,262.0,265.0,10.01,11.37,,47.59359,-54.27349
2017-12-11 06:20:00+00:00,260.0,251.0,10.54,12.45,,47.59359,-54.27349
2017-12-11 06:30:00+00:00,272.0,269.0,9.83,11.19,,47.59359,-54.27349
2017-12-11 06:40:00+00:00,262.0,261.0,9.13,9.92,,47.59359,-54.27349
2017-12-11 06:50:00+00:00,266.0,273.0,9.58,10.96,,47.59359,-54.27349
2017-12-11 07:00:00+00:00,271.0,272.0,9.93,11.65,,47.59359,-54.27349
2017-12-11 07:10:00+00:00,270.0,274.0,9.35,10.97,,47.59359,-54.27349
2017-12-11 07:20:00+00:00,271.0,267.0,9.54,10.85,,47.59359,-54.27349
2017-12-11 07:30:00+00:00,275.0,276.0,10.1,11.65,,47.59359,-54.27349
2017-12-11 07:40:00+00:00,270.0,268.0,9.38,10.88,,47.59359,-54.27349
2017-12-11 07:50:00+00:00,265.0,266.0,9.31,10.44,,47.59359,-54.27349
2017-12-11 08:00:00+00:00,262.0,259.0,8.75,9.4,,47.59359,-54.27349
2017-12-11 08:10:00+00:00,267.0,269.0,8.96,10.05,,47.59359,-54.27349
2017-12-11 08:20:00+00:00,260.0,261.0,8.59,9.31,,47.59359,-54.27349
2017-12-11 08:30:00+00:00,263.0,264.0,7.37,8.78,,47.59359,-54.27349
2017-12-11 08:40:00+00:00,253.0,251.0,7.23,7.89,,47.59359,-54.27349
2017-12-11 08:50:00+00:00,244.0,243.0,7.42,8.62,,47.59359,-54.27349
2017-12-11 09:00:00+00:00,248.0,250.0,6.37,7.66,,47.59359,-54.27349
2017-12-11 09:10:00+00:00,240.0,248.0,6.93,8.1,,47.59359,-54.27349
2017-12-11 09:20:00+00:00,248.0,252.0,8.31,9.67,,47.59359,-54.27349
2017-12-11 09:30:00+00:00,249.0,255.0,8.08,9.49,,47.59359,-54.27349
2017-12-11 09:40:00+00:00,245.0,253.0,7.59,8.98,,47.59359,-54.27349
2017-12-11 09:50:00+00:00,243.0,239.0,7.11,8.64,,47.59359,-54.27349
2017-12-11 10:00:00+00:00,238.0,244.0,7.88,9.15,,47.59359,-54.27349
2017-12-11 10:10:00+00:00,241.0,236.0,8.24,10.35,,47.59359,-54.27349
2017-12-11 10:20:00+00:00,247.0,241.0,8.51,10.53,,47.59359,-54.27349
2017-12-11 10:30:00+00:00,245.0,249.0,9.06,11.01,,47.59359,-54.27349
2017-12-11 10:40:00+00:00,247.0,253.0,9.1,10.79,,47.59359,-54.27349
2017-12-11 10:50:00+00:00,242.0,253.0,8.56,10.0,,47.59359,-54.27349
2017-12-11 11:00:00+00:00,249.0,248.0,9.88,11.23,,47.59359,-54.27349
2017-12-11 11:10:00+00:00,251.0,261.0,8.96,11.14,,47.59359,-54.27349
2017-12-11 11:20:00+00:00,251.0,250.0,8.58,9.95,,47.59359,-54.27349
2017-12-11 11:30:00+00:00,258.0,250.0,8.71,10.03,,47.59359,-54.27349
2017-12-11 11:40:00+00:00,266.0,270.0,9.2,10.08,,47.59359,-54.27349
2017-12-11 11:50:00+00:00,265.0,267.0,9.81,11.17,,47.59359,-54.27349
2017-12-11 12:00:00+00:00,263.0,259.0,11.63,13.59,,47.59359,-54.27349
2017-12-11 12:10:00+00:00,256.0,255.0,10.17,11.16,,47.59359,-54.27349
2017-12-11 12:20:00+00:00,243.0,238.0,10.06,11.63,,47.59359,-54.27349
2017-12-11 12:30:00+00:00,257.0,266.0,8.13,9.3,,47.59359,-54.27349
2017-12-11 12:40:00+00:00,260.0,260.0,11.02,12.33,,47.59359,-54.27349
2017-12-11 12:50:00+00:00,265.0,265.0,9.73,11.52,,47.59359,-54.27349
2017-12-11 13:00:00+00:00,261.0,260.0,8.6,9.56,,47.59359,-54.27349
2017-12-11 13:10:00+00:00,258.0,256.0,9.07,10.05,,47.59359,-54.27349
2017-12-11 13:20:00+00:00,269.0,272.0,8.46,9.43,,47.59359,-54.27349
2017-12-11 13:30:00+00:00,273.0,269.0,10.34,11.33,,47.59359,-54.27349
2017-12-11 13:40:00+00:00,264.0,271.0,9.8,11.17,,47.59359,-54.27349
2017-12-11 13:50:00+00:00,266.0,264.0,8.02,9.09,,47.59359,-54.27349
2017-12-11 14:00:00+00:00,265.0,264.0,8.24,9.16,,47.59359,-54.27349
2017-12-11 14:10:00+00:00,263.0,265.0,9.05,10.36,,47.59359,-54.27349
2017-12-11 14:20:00+00:00,264.0,261.0,8.38,9.6,,47.59359,-54.27349
2017-12-11 14:30:00+00:00,266.0,263.0,9.28,10.69,,47.59359,-54.27349
2017-12-11 14:40:00+00:00,269.0,266.0,10.35,12.15,,47.59359,-54.27349
2017-12-11 14:50:00+00:00,262.0,264.0,10.37,11.75,,47.59359,-54.27349
2017-12-11 15:00:00+00:00,271.0,272.0,10.2,11.7,,47.59359,-54.27349
2017-12-11 15:10:00+00:00,275.0,278.0,9.77,11.33,,47.59359,-54.27349
2017-12-11 15:20:00+00:00,270.0,265.0,8.68,9.97,,47.59359,-54.27349
2017-12-11 15:30:00+00:00,257.0,253.0,10.69,12.42,,47.59359,-54.27349
2017-12-11 15:40:00+00:00,267.0,276.0,11.11,12.87,,47.59359,-54.27349
2017-12-11 15:50:00+00:00,272.0,279.0,11.26,13.82,,47.59359,-54.27349
2017-12-11 16:00:00+00:00,285.0,286.0,12.49,14.34,,47.59359,-54.27349
2017-12-11 16:10:00+00:00,264.0,269.0,10.43,11.55,,47.59359,-54.27349
2017-12-11 16:20:00+00:00,270.0,278.0,11.92,14.12,,47.59359,-54.27349
2017-12-11 16:30:00+00:00,265.0,263.0,11.6,13.59,,47.59359,-54.27349
2017-12-11 16:40:00+00:00,266.0,259.0,10.46,12.1,,47.59359,-54.27349
2017-12-11 16:50:00+00:00,276.0,279.0,8.89,10.49,,47.59359,-54.27349
2017-12-11 17:00:00+00:00,266.0,259.0,9.74,11.5,,47.59359,-54.27349
2017-12-11 17:10:00+00:00,266.0,266.0,10.85,12.26,,47.59359,-54.27349
2017-12-11 17:20:00+00:00,274.0,275.0,8.97,10.07,,47.59359,-54.27349
2017-12-11 17:30:00+00:00,276.0,277.0,7.38,8.51,,47.59359,-54.27349
2017-12-11 17:40:00+00:00,263.0,263.0,9.07,10.89,,47.59359,-54.27349
2017-12-11 17:50:00+00:00,275.0,268.0,10.2,12.42,,47.59359,-54.27349
2017-12-11 18:00:00+00:00,273.0,269.0,9.4,10.58,,47.59359,-54.27349
2017-12-11 18:10:00+00:00,271.0,274.0,9.06,9.84,,47.59359,-54.27349
2017-12-11 18:20:00+00:00,269.0,262.0,9.27,10.72,,47.59359,-54.27349
2017-12-11 18:30:00+00:00,266.0,267.0,7.45,9.14,,47.59359,-54.27349
2017-12-11 18:40:00+00:00,263.0,264.0,6.78,7.58,,47.59359,-54.27349
2017-12-11 18:50:00+00:00,261.0,260.0,7.71,8.44,,47.59359,-54.27349
2017-12-11 19:00:00+00:00,262.0,265.0,7.65,8.55,,47.59359,-54.27349
2017-12-11 19:10:00+00:00,262.0,256.0,7.7,8.77,,47.59359,-54.27349
2017-12-11 19:20:00+00:00,266.0,271.0,7.82,8.7,,47.59359,-54.27349
2017-12-11 19:30:00+00:00,264.0,269.0,7.23,8.33,,47.59359,-54.27349
2017-12-11 19:40:00+00:00,264.0,260.0,7.76,9.19,,47.59359,-54.27349
2017-12-11 19:50:00+00:00,262.0,260.0,8.63,9.84,,47.59359,-54.27349
2017-12-11 20:00:00+00:00,270.0,260.0,6.87,7.8,,47.59359,-54.27349
2017-12-11 20:10:00+00:00,276.0,277.0,6.81,7.58,,47.59359,-54.27349
2017-12-11 20:20:00+00:00,268.0,273.0,5.77,6.85,,47.59359,-54.27349
2017-12-11 20:30:00+00:00,272.0,274.0,5.53,6.01,,47.59359,-54.27349
2017-12-11 20:40:00+00:00,259.0,258.0,6.16,7.2,,47.59359,-54.27349
2017-12-11 20:50:00+00:00,261.0,260.0,7.95,8.71,,47.59359,-54.27349
2017-12-11 21:00:00+00:00,270.0,273.0,6.98,7.84,,47.59359,-54.27349
2017-12-11 21:10:00+00:00,277.0,281.0,7.21,8.0,,47.59359,-54.27349
2017-12-11 21:20:00+00:00,271.0,270.0,6.35,7.42,,47.59359,-54.27349
2017-12-11 21:30:00+00:00,279.0,279.0,6.82,7.4,,47.59359,-54.27349
2017-12-11 21:40:00+00:00,277.0,277.0,6.26,7.03,,47.59359,-54.27349
2017-12-11 21:50:00+00:00,280.0,281.0,6.4,7.6,,47.59359,-54.27349
2017-12-11 22:00:00+00:00,276.0,276.0,5.25,5.99,,47.59359,-54.27349
2017-12-11 22:10:00+00:00,278.0,278.0,5.16,5.84,,47.59359,-54.27349
2017-12-11 22:20:00+00:00,267.0,271.0,5.27,5.89,,47.59359,-54.27349
2017-12-11 22:30:00+00:00,251.0,251.0,5.25,5.97,,47.59359,-54.27349
2017-12-11 22:40:00+00:00,255.0,256.0,5.54,6.09,,47.59359,-54.27349
2017-12-11 22:50:00+00:00,253.0,255.0,4.31,4.91,,47.59359,-54.27349
2017-12-11 23:00:00+00:00,253.0,251.0,5.42,6.35,,47.59359,-54.27349
2017-12-11 23:10:00+00:00,251.0,250.0,6.13,7.16,,47.59359,-54.27349
2017-12-11 23:20:00+00:00,263.0,262.0,5.61,6.79,,47.59359,-54.27349
2017-12-11 23:30:00+00:00,256.0,254.0,5.16,6.05,,47.59359,-54.27349
2017-12-11 23:40:00+00:00,247.0,249.0,5.33,6.2,,47.59359,-54.27349
2017-12-11 23:50:00+00:00,242.0,244.0,3.95,4.61,,47.59359,-54.27349
